User: anonymous   Login
Location: Lombard
(41.8800°N, 88.0080°W)
Time: 13:19:18
(UTC-05:00)
Language:

Max Valier Satellite - Orbit

View from above orbital plane
View from above orbital plane
View from above satellite
View from above satellite

Ground track
Ground track

The orbit data is extracted from the following two-line orbital elements,

1 42778U 17036P   22135.68385582  .00012829  00000-0  49432-3 0  9990
2 42778  97.2083 177.9171 0013023  85.9933 274.2794 15.26385700271909
Epoch (UTC): 15 May 2022 16:24:45
Eccentricity: 0.0013023
inclination: 97.2083°
perigee height: 477 km
apogee height: 495 km
right ascension of ascending node: 177.9171°
argument of perigee: 85.9933°
revolutions per day: 15.26385700
mean anomaly at epoch: 274.2794°
orbit number at epoch: 27190

The dashed part of the orbit path shows where the satellite is in the earth's shadow,  

DLR